Wind_Speed
11 11 12 12 13 13 14 14 15 14 13 13 12 11 10 9 8 8 8 7 6 6 7 7 6 6 7 7 6 7 8 8 8 7 6 6 6 6 6 6 5 4 3 3 4 4 3 2 1
11 11 11 12 13 13 14 14 15 15 14 13 12 11 11 10 9 9 9 8 7 7 7 7 7 6 7 7 6 6 6 7 7 6 6 5 5 5 4 4 5 3 3 3 2 2 2 2 1
12 11 11 12 12 14 15 15 15 15 13 12 12 12 11 11 10 10 9 8 8 7 7 7 7 7 7 7 7 7 6 6 6 6 6 5 5 4 4 4 4 3 3 2 2 1 1 1 1
11 12 12 12 13 14 14 14 14 14 13 13 13 12 12 11 10 10 9 9 8 8 8 8 8 8 8 8 7 8 7 6 6 6 5 5 4 4 4 4 3 3 2 2 2 2 1 2 2
10 11 12 12 12 13 14 14 14 14 13 13 13 13 12 11 10 10 9 9 7 8 8 9 9 9 9 9 8 8 7 6 5 4 4 4 4 4 3 4 3 3 2 2 2 2 2 2 2
10 11 12 13 14 14 14 13 13 13 13 13 12 13 12 11 10 10 10 9 8 8 9 9 10 10 10 9 8 7 7 6 5 4 4 3 3 3 4 3 3 3 2 2 2 2 2 2 2
10 11 12 13 14 14 14 14 14 13 13 13 13 13 13 11 11 11 10 10 10 10 9 10 10 10 9 9 8 7 6 5 5 5 4 3 3 4 4 3 3 3 3 2 2 2 2 2 2
10 11 11 12 13 13 14 14 13 13 13 13 13 13 13 12 12 11 11 11 11 11 11 11 11 10 9 9 8 7 6 5 5 5 5 4 4 4 3 3 3 2 2 3 3 3 2 2 3
9 10 11 12 13 13 13 14 14 13 12 13 13 14 13 12 12 12 11 11 11 11 11 11 11 10 9 9 8 8 6 5 5 4 4 4 4 4 3 3 2 2 2 2 2 2 2 1 2
9 10 11 12 12 12 14 15 14 13 13 13 13 13 13 13 12 11 11 11 11 11 10 10 10 10 9 9 8 8 6 6 6 5 5 5 5 4 4 4 3 2 2 2 2 2 2 2 2
9 9 10 11 11 12 14 15 14 14 13 13 13 12 13 12 12 12 11 11 11 11 11 10 10 10 10 9 9 8 7 7 7 7 6 5 5 5 4 4 4 3 2 2 2 2 2 2 2
8 9 10 10 10 12 13 14 14 13 13 13 12 12 12 12 11 11 11 10 10 11 10 10 10 10 9 9 8 8 8 8 7 7 6 5 5 4 4 4 4 4 3 3 3 3 3 3 2
7 8 8 9 10 11 12 13 14 13 13 13 12 11 11 11 11 10 10 9 10 10 10 10 10 9 9 8 8 7 7 7 6 6 6 5 4 4 4 4 4 4 4 3 3 3 3 3 2
7 7 8 8 9 10 11 12 13 13 12 12 11 10 10 10 9 9 9 9 9 9 9 9 8 8 8 8 7 6 6 6 6 6 6 5 5 5 4 4 4 4 4 3 3 3 3 2 3
6 6 6 7 7 8 9 10 11 11 12 12 11 10 9 8 8 8 8 9 9 8 8 8 7 7 7 7 6 6 5 5 5 5 5 6 5 5 5 4 4 4 4 3 3 3 3 3 3
4 4 5 5 6 6 7 8 9 9 10 11 11 10 9 8 7 7 6 7 7 7 7 7 7 6 6 6 6 5 5 5 5 5 5 5 5 5 5 5 4 5 4 4 4 4 3 3 4
5 4 4 3 3 5 6 7 7 7 8 10 10 10 9 8 8 7 6 6 6 6 7 7 6 6 6 6 5 5 5 5 5 5 5 5 4 5 5 5 6 6 6 5 5 4 4 5 5
6 4 3 2 2 2 4 5 6 6 7 8 9 9 8 8 7 6 6 6 6 6 6 6 6 6 6 6 5 5 5 5 5 5 5 5 6 6 6 6 7 7 6 7 7 6 6 6 6
6 5 3 1 1 1 1 2 4 5 6 6 7 7 6 6 6 5 5 5 6 5 5 5 6 6 6 6 5 5 5 6 5 5 5 6 6 6 6 6 6 7 7 7 7 6 6 6 6
7 7 5 3 4 3 1 1 2 4 5 5 5 5 5 4 4 4 4 4 4 4 5 5 5 5 5 5 5 5 5 5 5 5 5 6 6 7 7 7 7 7 7 7 8 7 6 6 7
8 7 6 7 7 5 3 2 2 3 4 4 3 4 4 3 2 2 2 3 3 4 4 5 5 5 5 4 4 4 5 5 6 6 6 6 6 6 6 6 6 7 7 7 8 8 7 7 7
10 9 8 8 8 8 7 5 4 4 4 4 4 4 4 2 1 2 2 2 3 3 4 4 4 4 4 4 5 5 6 6 6 7 7 6 6 6 7 7 7 8 8 8 9 9 8 8 8
12 11 10 9 10 10 9 8 7 6 5 5 5 5 4 4 3 4 3 3 3 4 5 5 5 5 5 5 6 6 7 7 7 7 8 7 7 7 7 8 9 9 9 9 10 9 10 9 9
15 14 13 12 11 11 10 10 8 8 7 6 6 6 6 5 5 5 5 4 5 5 6 6 6 6 6 6 7 8 8 8 8 8 9 9 9 9 9 9 9 10 10 10 10 11 11 11 11
17 16 16 15 14 12 12 12 10 10 9 8 8 7 7 6 6 6 6 6 6 7 8 7 7 8 8 8 8 8 9 8 8 9 10 10 10 10 10 10 11 11 11 12 12 12 12 12 13
19 18 18 18 17 15 15 15 13 12 11 10 10 9 8 7 6 6 7 7 7 7 8 8 8 9 9 9 9 9 9 9 9 10 11 11 12 12 12 12 12 13 13 14 13 13 13 14 14
21 20 20 20 20 19 18 17 15 14 13 13 13 11 10 9 8 8 9 9 9 8 9 10 10 10 11 11 11 11 11 11 11 12 12 12 13 13 13 14 14 15 15 15 15 15 15 15 16
22 22 22 22 21 20 19 17 16 15 15 15 14 13 12 11 11 11 11 11 10 11 11 11 11 11 11 11 12 12 12 13 13 13 14 14 14 14 14 15 16 17 16 17 17 17 17 17 18
23 23 22 23 22 21 19 17 15 16 16 15 15 15 15 14 12 12 13 12 12 12 12 11 12 12 12 13 13 14 14 14 14 14 15 15 16 16 16 17 17 17 18 19 19 19 19 19 20
23 23 22 23 22 21 20 17 16 16 16 17 17 17 17 16 14 14 14 14 14 14 13 14 14 14 14 14 14 14 15 15 15 16 16 17 17 18 18 19 18 19 19 19 19 20 20 21 22
Wind_Direction
68 70 73 69 64 62 64 63 60 57 55 56 56 55 58 63 66 70 73 71 73 79 80 77 75 77 82 90 101 105 111 109 103 99 94 85 77 72 70 68 58 60 70 63 59 59 69 68 40
68 72 73 68 63 62 65 61 58 55 53 53 57 57 58 62 64 67 71 72 76 78 77 75 74 79 84 89 99 106 110 108 98 92 89 84 80 71 62 52 41 42 46 54 44 39 44 31 358
73 72 67 66 62 63 65 60 56 55 52 53 59 59 57 60 63 66 70 74 77 79 76 75 78 80 85 91 102 106 106 109 99 87 85 82 75 65 51 39 36 31 25 18 2 356 3 2 335
75 72 69 67 64 62 61 58 55 54 51 54 60 60 58 59 63 66 68 71 76 80 77 76 78 83 88 96 103 106 104 107 100 83 85 78 70 56 45 36 26 15 359 348 339 334 311 319 316
74 74 67 63 62 59 61 60 57 53 51 52 57 59 59 59 61 65 65 70 79 83 80 80 81 85 90 96 99 103 103 98 89 76 79 70 58 44 33 26 17 3 352 352 338 321 328 326 311
75 71 64 59 57 56 59 59 60 59 54 52 55 60 60 59 59 63 66 70 77 84 84 86 85 86 92 96 95 99 98 92 87 79 72 56 42 29 23 20 16 13 6 343 341 327 308 300 291
71 69 62 57 57 56 58 58 59 57 55 55 58 61 62 60 61 64 67 73 79 84 84 86 88 86 90 93 91 93 95 90 81 72 59 50 43 29 22 27 25 20 14 3 335 311 311 303 280
73 69 66 59 60 59 58 55 56 56 58 60 60 62 63 62 62 65 70 77 81 82 82 83 86 83 86 89 87 84 84 79 69 58 49 45 36 23 18 23 24 19 7 359 339 323 309 288 272
80 75 68 63 63 62 57 54 56 56 61 61 61 60 62 62 63 66 71 77 80 81 80 79 82 83 84 86 85 84 76 70 60 51 47 40 34 34 36 38 34 29 11 353 328 322 328 310 275
88 80 72 69 65 62 59 59 58 58 61 62 62 59 59 59 61 67 72 75 77 78 79 78 78 81 84 85 81 79 78 69 56 50 50 52 51 48 47 46 48 36 22 4 333 308 318 301 274
96 87 81 74 67 64 62 60 62 62 62 63 61 60 60 61 61 69 75 75 73 76 79 80 83 81 82 81 78 74 71 65 60 56 53 53 55 53 51 55 55 45 24 359 338 317 320 312 265
102 91 84 77 70 66 61 59 61 60 59 61 61 62 62 61 60 66 74 79 77 80 82 82 82 82 79 75 72 69 67 64 61 53 48 48 49 50 47 46 43 34 17 353 331 319 324 312 291
111 99 87 79 75 67 62 62 60 60 59 57 57 60 60 63 61 64 71 76 78 80 81 83 80 76 72 70 73 71 67 63 59 52 49 43 37 38 35 32 19 7 355 349 337 328 333 333 315
127 113 99 88 77 67 63 63 60 57 60 58 53 54 58 66 65 66 71 74 75 78 79 76 76 71 68 65 66 66 62 55 48 45 44 36 29 29 22 15 4 358 347 338 336 329 323 329 333
135 122 113 97 80 68 59 59 59 52 54 58 58 58 58 65 68 70 69 70 69 71 72 69 69 62 59 57 58 56 53 45 37 31 29 25 20 14 9 4 360 354 344 333 324 322 325 317 321
145 137 119 97 83 75 60 58 59 51 49 51 57 57 56 57 63 67 63 64 61 62 62 61 63 53 48 49 47 41 35 29 24 19 16 15 15 15 9 0 351 345 338 326 313 315 310 306 300
165 151 134 106 85 76 65 56 56 49 49 45 49 51 55 54 59 57 51 51 54 57 59 56 52 44 39 40 40 36 31 23 17 12 11 10 12 13 5 358 356 350 345 336 314 300 295 296 294
182 175 158 94 59 71 61 58 52 42 41 39 43 49 55 61 64 58 53 50 51 54 56 55 50 39 35 35 33 32 30 26 21 19 17 15 11 3 354 348 352 352 344 341 332 305 298 296 296
201 192 187 221 319 339 20 42 36 31 30 33 33 35 48 54 58 59 56 50 50 51 52 46 40 36 34 31 30 28 21 20 19 14 8 4 1 357 355 352 352 351 351 350 341 323 316 313 301
216 203 209 236 277 292 272 336 15 11 10 19 26 25 39 45 53 60 55 44 41 39 44 41 33 29 23 20 19 15 9 7 7 4 356 352 349 347 347 352 353 347 346 345 341 327 315 312 305
218 220 229 242 262 272 278 281 314 332 348 358 1 11 19 29 37 36 35 27 28 21 25 23 19 14 8 2 355 350 347 347 352 351 345 342 340 338 334 334 338 333 330 330 330 322 312 310 309
235 236 239 246 253 268 275 276 283 293 308 328 330 329 331 325 318 338 349 2 2 352 352 357 360 359 356 352 345 342 341 338 335 337 334 332 328 323 319 318 320 317 315 316 316 314 312 306 304
235 240 244 252 260 270 280 281 277 273 285 300 301 305 311 309 303 310 314 318 328 328 330 333 334 333 330 332 331 331 333 328 324 326 328 321 316 316 313 312 312 310 308 309 309 309 311 307 304
239 244 250 256 265 270 279 280 277 274 278 284 284 291 296 291 289 296 300 296 303 310 315 316 319 316 315 319 323 325 323 318 317 321 321 315 310 310 309 306 304 305 304 305 307 306 308 308 306
241 246 253 259 265 270 274 276 274 273 275 278 280 284 289 284 279 282 291 292 294 300 306 309 310 308 307 309 312 316 316 316 314 314 315 313 308 304 302 302 300 302 302 301 303 304 305 305 305
242 247 254 261 267 270 272 272 270 269 272 274 279 282 280 280 280 277 280 278 282 292 300 305 307 309 307 305 303 305 308 309 306 305 307 307 306 302 300 300 299 299 300 300 302 305 305 303 303
241 245 252 259 265 269 271 271 268 266 269 272 277 281 279 278 285 283 278 278 286 293 298 298 301 304 303 302 298 295 298 299 297 298 301 303 304 301 297 297 296 296 298 299 300 302 302 301 300
242 246 250 255 261 269 271 269 268 267 269 271 273 274 277 282 287 285 282 283 286 293 296 298 298 301 301 300 296 293 292 293 295 297 298 300 300 299 300 298 295 294 296 295 298 298 297 297 297
243 246 249 253 259 267 269 270 271 272 270 272 274 276 276 278 283 282 280 285 287 290 294 296 297 298 299 297 295 293 290 290 292 294 296 297 296 296 298 297 295 293 294 296 296 295 294 294 296
245 248 251 255 260 263 266 268 273 274 273 273 273 276 275 275 279 282 281 282 282 283 286 288 290 292 293 294 295 292 289 288 290 292 294 295 295 294 295 296 295 294 295 296 295 293 292 293 295
Height
5881 5881 5881 5881 5881 5880 5878 5877 5876 5876 5875 5874 5873 5873 5873 5873 5873 5875 5873 5872 5872 5872 5871 5871 5871 5870 5870 5871 5872 5873 5874 5875 5876 5877 5878 5878 5879 5880 5880 5880 5881 5881 5882 5882 5882 5882 5882 5883 5883
5883 5883 5884 5883 5882 5880 5880 5878 5878 5877 5877 5876 5875 5874 5874 5873 5873 5873 5872 5872 5872 5872 5872 5871 5870 5869 5869 5870 5871 5873 5874 5876 5877 5878 5878 5879 5879 5880 5880 5881 5881 5881 5882 5882 5883 5883 5883 5883 5883
5885 5884 5885 5884 5883 5882 5881 5880 5879 5878 5878 5877 5876 5875 5875 5874 5874 5874 5873 5873 5873 5872 5872 5871 5869 5868 5868 5869 5871 5873 5875 5876 5877 5878 5879 5879 5880 5880 5881 5881 5881 5882 5882 5882 5882 5882 5883 5883 5883
5887 5887 5887 5886 5884 5883 5882 5881 5880 5880 5879 5878 5877 5877 5876 5876 5875 5875 5874 5874 5873 5873 5872 5870 5869 5867 5868 5869 5872 5874 5876 5877 5878 5879 5879 5880 5880 5881 5881 5881 5882 5882 5882 5882 5883 5882 5883 5883 5883
5889 5888 5888 5886 5885 5885 5884 5883 5882 5882 5881 5880 5879 5878 5877 5877 5877 5876 5875 5875 5874 5874 5873 5871 5869 5868 5869 5871 5873 5875 5876 5877 5878 5879 5879 5880 5880 5881 5881 5881 5881 5882 5882 5882 5882 5882 5882 5882 5882
5891 5890 5889 5888 5887 5886 5885 5884 5884 5883 5882 5882 5880 5879 5879 5879 5878 5877 5877 5876 5875 5875 5875 5873 5872 5871 5872 5873 5875 5877 5878 5879 5879 5879 5880 5880 5880 5881 5881 5881 5881 5881 5881 5881 5882 5882 5882 5882 5882
5893 5891 5890 5890 5889 5888 5887 5886 5885 5884 5884 5883 5882 5881 5880 5880 5880 5879 5878 5878 5877 5877 5876 5876 5875 5875 5875 5876 5877 5878 5879 5880 5880 5880 5880 5880 5880 5880 5880 5880 5880 5880 5881 5881 5881 5881 5881 5881 5882
5893 5894 5892 5891 5890 5890 5889 5887 5886 5886 5886 5885 5884 5883 5883 5882 5882 5881 5880 5880 5879 5879 5878 5878 5878 5878 5878 5878 5879 5879 5880 5880 5881 5881 5881 5880 5880 5880 5880 5880 5880 5880 5880 5881 5881 5881 5881 5881 5881
5895 5896 5893 5893 5892 5892 5890 5889 5889 5888 5887 5886 5886 5885 5885 5884 5883 5882 5882 5882 5881 5881 5880 5880 5880 5880 5880 5880 5880 5881 5881 5881 5881 5881 5881 5880 5880 5879 5879 5878 5879 5879 5880 5880 5880 5881 5880 5881 5880
5896 5896 5895 5895 5894 5893 5892 5891 5890 5889 5889 5888 5888 5887 5886 5885 5885 5884 5884 5883 5883 5883 5882 5882 5882 5882 5882 5882 5882 5882 5883 5882 5882 5882 5881 5881 5880 5879 5879 5878 5878 5879 5880 5880 5880 5880 5880 5880 5880
5897 5897 5897 5896 5896 5895 5894 5892 5892 5891 5890 5890 5889 5889 5888 5887 5887 5886 5886 5885 5885 5884 5884 5883 5883 5884 5884 5884 5884 5884 5884 5884 5883 5883 5882 5881 5881 5880 5879 5879 5879 5879 5880 5880 5880 5880 5880 5879 5879
5899 5899 5898 5898 5897 5896 5896 5895 5894 5893 5893 5892 5891 5890 5890 5889 5888 5888 5887 5887 5886 5886 5885 5885 5885 5885 5885 5885 5885 5885 5885 5885 5884 5883 5883 5882 5881 5881 5880 5880 5880 5880 5880 5879 5879 5879 5879 5879 5879
5899 5900 5900 5899 5899 5898 5897 5897 5896 5895 5894 5893 5893 5892 5891 5891 5890 5889 5889 5889 5888 5887 5887 5887 5887 5887 5887 5887 5886 5886 5886 5886 5885 5884 5883 5883 5882 5882 5881 5881 5880 5880 5880 5879 5879 5879 5879 5879 5878
5900 5900 5900 5900 5900 5900 5899 5899 5898 5897 5895 5895 5894 5894 5893 5892 5892 5891 5891 5890 5889 5889 5888 5888 5888 5888 5888 5888 5888 5887 5887 5886 5886 5885 5884 5884 5883 5882 5881 5881 5880 5880 5880 5879 5879 5878 5878 5878 5878
5901 5901 5902 5902 5901 5901 5901 5900 5899 5898 5897 5896 5896 5895 5894 5894 5893 5893 5892 5891 5891 5890 5890 5889 5889 5889 5889 5889 5889 5888 5888 5887 5886 5886 5885 5884 5883 5882 5882 5881 5881 5880 5879 5879 5878 5878 5878 5878 5878
5901 5902 5902 5903 5902 5902 5903 5902 5901 5900 5899 5898 5897 5896 5896 5895 5894 5894 5893 5893 5892 5891 5891 5890 5890 5891 5890 5890 5889 5889 5888 5888 5887 5886 5885 5884 5884 5883 5882 5881 5881 5880 5879 5878 5878 5878 5877 5877 5877
5901 5902 5902 5903 5903 5903 5903 5903 5902 5901 5900 5899 5899 5898 5897 5896 5895 5895 5894 5894 5893 5892 5892 5891 5891 5891 5891 5891 5890 5889 5889 5888 5887 5886 5886 5885 5884 5883 5882 5881 5880 5880 5879 5878 5877 5877 5876 5876 5876
5901 5902 5902 5903 5903 5903 5903 5903 5903 5902 5901 5900 5900 5899 5898 5897 5896 5896 5895 5894 5894 5893 5893 5892 5892 5892 5891 5891 5890 5889 5889 5888 5887 5887 5886 5885 5884 5883 5882 5881 5880 5879 5879 5877 5877 5876 5876 5875 5875
5900 5901 5902 5902 5902 5903 5903 5903 5903 5902 5901 5901 5900 5899 5898 5898 5897 5896 5896 5895 5895 5894 5893 5893 5892 5892 5891 5890 5890 5889 5889 5888 5887 5886 5886 5885 5884 5883 5882 5881 5880 5879 5878 5877 5876 5875 5874 5874 5874
5899 5900 5901 5902 5902 5902 5903 5903 5903 5902 5901 5901 5900 5900 5899 5898 5897 5897 5896 5895 5895 5894 5894 5893 5893 5892 5891 5891 5890 5889 5889 5888 5887 5886 5885 5884 5883 5882 5881 5881 5880 5879 5878 5876 5875 5875 5874 5873 5873
5898 5900 5900 5901 5901 5901 5902 5903 5903 5902 5901 5901 5900 5899 5898 5898 5897 5897 5896 5895 5895 5895 5894 5893 5892 5891 5891 5890 5890 5889 5888 5887 5886 5885 5884 5883 5883 5882 5881 5880 5879 5878 5877 5876 5875 5874 5873 5872 5871
5897 5898 5899 5899 5899 5900 5901 5902 5902 5902 5901 5900 5900 5899 5898 5897 5897 5897 5896 5895 5895 5895 5894 5893 5892 5891 5891 5890 5889 5888 5887 5886 5885 5884 5883 5883 5882 5881 5880 5879 5878 5877 5876 5875 5874 5873 5872 5871 5870
5896 5896 5897 5897 5897 5899 5899 5900 5902 5901 5900 5899 5899 5898 5898 5897 5896 5896 5895 5895 5894 5894 5894 5893 5892 5891 5890 5889 5888 5887 5886 5885 5884 5883 5882 5881 5880 5879 5878 5877 5876 5875 5874 5873 5872 5871 5870 5869 5868
5893 5894 5895 5895 5896 5897 5898 5898 5899 5899 5899 5899 5898 5897 5897 5896 5896 5895 5894 5893 5893 5893 5892 5892 5891 5890 5889 5888 5887 5886 5885 5884 5883 5882 5881 5880 5879 5878 5877 5876 5875 5874 5872 5871 5870 5869 5868 5866 5865
5890 5892 5893 5893 5894 5895 5895 5895 5897 5897 5897 5897 5897 5896 5895 5895 5894 5893 5893 5892 5891 5891 5890 5890 5889 5888 5887 5886 5885 5884 5883 5882 5881 5880 5879 5878 5877 5875 5874 5874 5873 5871 5870 5869 5868 5867 5865 5864 5863
5887 5889 5890 5891 5891 5892 5892 5892 5895 5895 5894 5894 5895 5894 5893 5893 5892 5891 5891 5890 5890 5889 5888 5888 5887 5886 5885 5884 5883 5882 5881 5880 5879 5878 5877 5875 5874 5873 5872 5871 5870 5868 5867 5866 5865 5864 5862 5861 5860
5883 5885 5887 5887 5888 5888 5889 5890 5891 5891 5892 5892 5892 5891 5891 5890 5889 5889 5888 5888 5887 5887 5886 5885 5885 5883 5882 5881 5880 5879 5878 5877 5876 5875 5874 5873 5871 5870 5869 5868 5866 5865 5864 5863 5862 5860 5859 5858 5856
5880 5881 5883 5883 5884 5884 5885 5886 5888 5888 5888 5889 5888 5888 5887 5887 5887 5886 5885 5884 5884 5884 5883 5882 5881 5880 5879 5878 5877 5876 5876 5874 5873 5872 5871 5870 5868 5867 5865 5864 5863 5861 5860 5859 5858 5856 5855 5854 5852
5876 5877 5878 5879 5880 5881 5881 5885 5884 5884 5884 5884 5884 5884 5884 5884 5883 5883 5882 5881 5881 5880 5879 5878 5878 5877 5876 5875 5874 5873 5872 5871 5870 5868 5867 5866 5864 5863 5862 5860 5859 5857 5856 5855 5853 5852 5850 5849 5847
5871 5872 5874 5876 5876 5877 5877 5882 5880 5880 5880 5880 5880 5880 5880 5879 5879 5879 5878 5877 5877 5876 5875 5874 5874 5873 5872 5871 5870 5869 5868 5867 5866 5864 5863 5861 5860 5859 5858 5856 5854 5853 5851 5850 5848 5846 5845 5843 5842